Погода в Житковичи

Погода в Житковичи : погода сейчас, прогноз погоды и архив. Всё, что Вы хотите узнать о погоде в Житковичи!

Хотите узнать прогноз погоды в Житковичи? Тогда Вам сюда: Погода в Житковичи

Поиск расширенной информации на нашем сайте:

Другие новости

Новости СМИ2

Главная страница сайта

Новости сайта

02.10.2013

Напоминаем, что на нашем новом сайте вы можете получить высокодетализированные прогнозы погоды по пунктам России, СНГ и мира (включающие важные для авиации метеовеличины, такие как направление и скорость ветра, видимость, явления погоды, количество и форма облачности, нижняя и верхняя граница облачности), а также ознакомиться с разнообразными материалами по авиационной метеорологии и подборкой полезных ссылок на эту тему.

Сайт Метеоцентр.Азия посвящён разработке технологий оптимизации авиаметеорологического обслуживания, включая проектирование и перспективное создание нескольких автоматизированных авиаметеорологических систем:
- система выпуска высокодетальных прогностических карт явлений погоды для нижнего воздушного пространства по России и ближнему зарубежью;
- система верификации прогнозов TAF (выпускаемых синоптиками официальных АМСГ РФ и ближнего зарубежья) и AUTOTAF (выпускаемых сайтом Метеоцентр.Азия) - выявление ошибок, онлайн-сопоставление с фактической погодой METAR, автоматическое внесение коррективов в прогнозы при резком отклонении фактической погоды от прогноза, подсчёт оправдываемости прогнозов по элементам и в целом;
- система обработки, анализа и отображения авиаметеорологической информации для применения провайдерами метеорологической информации.


Погода в Житковичи - сегодня

Время (UTC), дата Ветер
(°,м/с) 
Видим.   Явления Облачность Т
(°С)
Тd
(°С)
f(%) Тe
(°С)
Pmin
(гПа)
dP
(гПа)
Po
(мм)
O2
(г/м3)
Тmin Tmax R s Состояние
почвы
03 21.01.17 260 (З) 2000 м  слаб. переохл. морось (гололёд) [диам. гололёда 0 мм]  10/10 300 м 
[St]
-0.7 -1.1 97 -2  1022.9  -1.1  754  305      0.0  25   
06 21.01.17 270 (З) 4000 м  слаб. переохл. морось (гололёд)  10/10 300 м 
[St]
+0.4 -0.2 96 -1  1023.1  0.3  754  304  -1.9    0.0  25  равномерный
мокрый или
старый снег
100% 
09 21.01.17 300 (СЗ) 4000 м  дымка{морось}  10/0 средняя 
[Ac As]
+1 +0.5 96 1024.3  1.3  755  303           
12 21.01.17 320 (СЗ) 4000 м  слаб. ливневой дождь  10/6 600 м кучево-дожд., средняя 
[Cb cap|Ac As]
+1.6 +1.1 96 1024.3  755  302           
15 21.01.17 300 (СЗ) 4000 м  слаб. ливневой дождь  10/8 600 м кучево-дожд., средняя 
[Cb cap|Ac As]
+1.3 +1 98 1025.9  1.5  757  303      0.4     
18 21.01.17 320 (СЗ) 4000 м  дымка{ливн. осадки}  9/4 600 м средняя 
[Sc|Ac trans]
+1.1 +0 92 1027.9  758  304    +2.2  0.9  17   
21 21.01.17 330 (СЗ) 4000 м  дымка  8/0 средняя, верхняя 
[Ac trans|Ci fib]
+0.4 -0.7 92 1030.3  2.2  760  306           
00 22.01.17 300 (СЗ) 4000 м  дымка  ясно 
-1.2 -1.8 96 -1  1031.6  1.3  761  308           
03 22.01.17 260 (З) 4000 м  дымка  9/9 600 м 
[Sc]
-3.3 -4 95 -3  1032.6  0.8  761  311        17   
06 22.01.17 290 (З) 4000 м  дымка  9/9 600 м 
[Sc]
-1.7 -3.1 90 -3  1032.9  0.3  761  309  -3.5      17  равномерный
мокрый или
старый снег
100% 
09 22.01.17 280 (З) 10 км    9/9 600 м 
[Sc]
-1.4 -3.4 86 -3  1033.5  0.8  762  309           
12 22.01.17 250 (З) 10 км    9/9 600 м 
[Sc]
+0.6 -1.7 85 -1  1032.2  -1.2  761  306           
15 22.01.17 270 (З) 10 км    9/9 600 м 
[Sc]
+0.1 -2 86 -2  1031.7  -0.6  761  307           
18 22.01.17 240 (ЮЗ) 10 км    9/9 600 м 
[Sc]
-0.3 -2.4 86 -1  1031.3  -0.4  760  307    +0.8    17   
21 22.01.17 230 (ЮЗ) 1000 м  дымка  10/10 300 м 
[St]
-0.9 -1.2 98 -2  1030.9  -0.4  760  307           
00 23.01.17 230 (ЮЗ) 1000 м  дымка  10/10 300 м 
[St]
-1.2 -1.5 98 -3  1029.6  -1.2  759  307           
03 23.01.17 240 (ЮЗ) 1000 м  слаб. переохл. морось (гололёд) [диам. гололёда 0 мм]  10/10 300 м 
[St]
-1.3 -1.6 98 -1  1028.5  -1.1  758  307      0.0  17   
06 23.01.17 250 (З) 1000 м  слаб. переохл. морось (гололёд) [диам. гололёда 0 мм]  10/10 300 м 
[St]
-1.6 -1.8 99 -4  1027.7  -1  758  307  -1.6    0.0  17  равномерный
мокрый или
старый снег
100% 
09 23.01.17 230 (ЮЗ) 0500 м  слаб. переохл. морось (гололёд){туман} [диам. гололёда 1 мм]  ?/?  
-1.6 -1.6 100 -4  1027.1  -0.6  757  307           
12 23.01.17 240 (ЮЗ) 1000 м  дымка{морось, туман} [диам. гололёда 1 мм]  10/0 средняя 
[As op]
-1.8 -2.1 98 -5  1024.9  -2.1  756  307           
15 23.01.17 220 (ЮЗ) 3{10}  2000 м  дымка [диам. гололёда 1 мм]  10/0 средняя 
[As op]
-1.7 -2.3 96 -4  1023.5  -1.4  755  306      0.0     
18 23.01.17 250 (З) 2000 м  дымка [диам. гололёда 1 мм]  10/0 средняя 
[As op]
-1.9 -2.5 96 -4  1022.4  -1.1  754  306    -0.9  0.0  17   
21 23.01.17 270 (З) 2000 м  дымка  10/0 средняя 
[As op]
-2 -2.3 98 -4  1021.5  -0.9  753  306           
00 24.01.17 240 (ЮЗ) 4000 м  дымка  10/0 средняя 
[Ac As]
-2.1 -3 94 -4  1020.3  -1.2  752  306           
03 24.01.17 260 (З) 4000 м  дымка  10/0 средняя 
[Ac As]
-2.3 -3.2 94 -3  1019.1  -0.1  751  306        17   
Время (UTC), дата Ветер
(°,м/с) 
Видим.   Явления Облачность Т
(°С)
Тd
(°С)
f(%) Тe
(°С)
Pmin
(гПа)
dP
(гПа)
Po
(мм)
O2
(г/м3)
Тmin Tmax R s Состояние
почвы

Для получения пояснительной информации подведите курсор к названию столбца.

ПОГОДА в Житковичи - архив

Всё, что Вы хотите узнать о погоде в Житковичи - удобно и подробно!

Выберите нужную дату (начиная с 1 января 2015* года) и нажмите кнопку "Найти".
Будут отображены архивные сводки погоды по пункту Житковичи, начиная с указанной даты.


Отображать данные в формате CSV (для использования в таблицах Excel)


Внимание! Наш архив погоды предназначен исключительно для личного некоммерческого использования в познавательных целях. Если Вам необходимы официальные справки о состоянии погоды (для производственных, юридических, коммерческих и т.п. целей), обращайтесь в органы Росгидромета.

*Примечание: данная дата относится к архиву по метеостанциям СССР (Россия, СНГ, Балтия).
Архив по метеостанциям Зарубежной Европы и Азии (кроме Китая) хранится 10 дней, по другим регионам земного шара (Китай, Африка, Америка, Австралия, Океания) - 1 день.

Житковичи - район местоположения метеостанции


Название, широта, долгота, высота метеостанции:
Житковичи 52.2°ш. 27.9°д. 137 м над ур. моря [Беларусь]

Дополнительная информация

В oтличие oт бoльшинства пoгoдных сайтoв мы публикуем пoдрoбную метеoинфoрмацию в детальнoм прoфессиoнальнoм фoрмате.

Характеристики температуры и влажнoсти вoздуха измеряются на высoте 2 м в тени вдали oт зданий и деревьев.
Скoрoсть ветра измеряется на высoте 10 м (на урoвне рoста челoвека скoрoсть ветра ниже в 1.5-2 раза). Если метеoстанция нахoдится в гoрoде или в лесу, тo скoрoсть ветра занижена на 2-4 м/с пo сравнению с oткрытым местoм. Скoрoсть ветра над акватoриями крупных рек и oзёр, а также на вершинах хoлмoв на 2-5 м/с выше, чем в oбычных услoвиях.
Атмoсфернoе давление в разных тoчках местнoсти мoжет значительнo oтличаться oт давления на метеoстанции, в зависимoсти oт услoвий рельефа (при пoдъёме на 10 м давление пoнижается примернo на 1 мм рт.ст.).